Retour au catalogue

CZ-6A DEB

ActifPO
NORAD 61435·DEBRIS·🇨🇳 China

Lancé Aug 6, 2024 depuis Taiyuan Satellite Launch Center

Loading…

Prochains Passages (prochaines 24 heures)

TLE

FraisSource: Space-Track

Époque: Sep 14, 2026, 10:37 UTC

1 61435U 24140ZC  26257.44294923  .00001652  00000-0  31435-3 0  9992
2 61435  88.8770 247.4218 0103607 281.0557  77.9018 14.60256716109811

Suivez CZ-6A DEB en temps réel avec AllMySat

Download on the App Store